| time (UTC) | temp C | wind direction | speed KPH | gust KPH | rain 1hr cm | rain 24hr cm | rain mn cm | humidity % | barometer mb |
| 20260504050415 | 10 | 209 | 8.0 | 9.7 | 0.00 | 0.00 | 0.00 | 49 | 1016.7 |
| 20260504045912 | 10 | 204 | 4.8 | 11.3 | 0.00 | 0.00 | 0.00 | 49 | 1016.7 |
| 20260504045407 | 10 | 206 | 3.2 | 9.7 | 0.00 | 0.00 | 0.00 | 48 | 1016.6 |
| 20260504044904 | 10 | 225 | 6.4 | 9.7 | 0.00 | 0.00 | 0.00 | 49 | 1016.7 |
| 20260504044401 | 10 | 229 | 4.8 | 9.7 | 0.00 | 0.00 | 0.00 | 49 | 1016.7 |
| 20260504043859 | 10 | 194 | 8.0 | 12.9 | 0.00 | 0.00 | 0.00 | 49 | 1016.9 |
| 20260504043355 | 10 | 220 | 0.0 | 11.3 | 0.00 | 0.00 | 0.00 | 49 | 1016.6 |
| 20260504042853 | 10 | 275 | 3.2 | 11.3 | 0.00 | 0.00 | 0.00 | 50 | 1016.7 |
| 20260504042349 | 10 | 192 | 4.8 | 8.0 | 0.00 | 0.00 | 0.00 | 51 | 1016.8 |
| 20260504041845 | 10 | 220 | 4.8 | 6.4 | 0.00 | 0.00 | 0.00 | 51 | 1016.8 |
| 20260504041342 | 10 | 232 | 3.2 | 8.0 | 0.00 | 0.00 | 0.00 | 52 | 1016.9 |
| 20260504040838 | 10 | 210 | 6.4 | 6.4 | 0.00 | 0.00 | 0.00 | 52 | 1016.8 |
| 20260504040336 | 9 | 189 | 6.4 | 6.4 | 0.00 | 0.00 | 0.00 | 52 | 1016.6 |
| 20260504035831 | 9 | 232 | 4.8 | 4.8 | 0.00 | 0.00 | 0.00 | 52 | 1016.8 |
| 20260504035330 | 9 | 180 | 3.2 | 4.8 | 0.00 | 0.00 | 0.00 | 52 | 1016.7 |
| 20260504034826 | 9 | 162 | 0.0 | 6.4 | 0.00 | 0.00 | 0.00 | 52 | 1016.8 |
| 20260504034324 | 9 | 202 | 3.2 | 6.4 | 0.00 | 0.00 | 0.00 | 52 | 1016.8 |
| 20260504033821 | 9 | 216 | 4.8 | 6.4 | 0.00 | 0.00 | 0.00 | 52 | 1016.7 |
| 20260504033319 | 9 | 215 | 4.8 | 4.8 | 0.00 | 0.00 | 0.00 | 52 | 1016.8 |
| 20260504032815 | 9 | 248 | 3.2 | 4.8 | 0.00 | 0.00 | 0.00 | 53 | 1016.9 |
| 20260504032312 | 9 | 216 | 4.8 | 4.8 | 0.00 | 0.00 | 0.00 | 53 | 1016.8 |
| 20260504031809 | 9 | 196 | 3.2 | 8.0 | 0.00 | 0.00 | 0.00 | 53 | 1016.9 |
| 20260504031307 | 9 | 204 | 3.2 | 4.8 | 0.00 | 0.00 | 0.00 | 52 | 1016.7 |
| 20260504030802 | 9 | 173 | 1.6 | 4.8 | 0.00 | 0.00 | 0.00 | 52 | 1017.0 |
| 20260504030259 | 10 | 187 | 1.6 | 6.4 | 0.00 | 0.00 | 0.00 | 51 | 1016.9 |
| 20260504025755 | 10 | 183 | 3.2 | 4.8 | 0.00 | 0.00 | 0.00 | 49 | 1017.0 |
| 20260504025253 | 10 | 213 | 3.2 | 8.0 | 0.00 | 0.00 | 0.00 | 49 | 1017.1 |
| 20260504024749 | 10 | 180 | 0.0 | 4.8 | 0.00 | 0.00 | 0.00 | 52 | 1017.1 |
| 20260504024246 | 10 | 184 | 3.2 | 8.0 | 0.00 | 0.00 | 0.00 | 52 | 1017.1 |
| 20260504023743 | 9 | 285 | 1.6 | 4.8 | 0.00 | 0.00 | 0.00 | 53 | 1016.9 |
| 20260504023239 | 10 | 180 | 3.2 | 4.8 | 0.00 | 0.00 | 0.00 | 53 | 1017.0 |
| 20260504022735 | 10 | 213 | 3.2 | 6.4 | 0.00 | 0.00 | 0.00 | 52 | 1016.9 |
| 20260504022232 | 10 | 218 | 4.8 | 6.4 | 0.00 | 0.00 | 0.00 | 51 | 1017.0 |
| 20260504021729 | 10 | 225 | 3.2 | 4.8 | 0.00 | 0.00 | 0.00 | 50 | 1016.8 |
| 20260504021226 | 10 | 229 | 0.0 | 3.2 | 0.00 | 0.00 | 0.00 | 51 | 1017.0 |
| 20260504020723 | 10 | 180 | 3.2 | 3.2 | 0.00 | 0.00 | 0.00 | 49 | 1016.8 |
| 20260504020220 | 11 | 180 | 1.6 | 4.8 | 0.00 | 0.00 | 0.00 | 46 | 1016.8 |
| 20260504015716 | 11 | 237 | 4.8 | 8.0 | 0.00 | 0.00 | 0.00 | 46 | 1016.8 |
| 20260504015212 | 11 | 203 | 0.0 | 6.4 | 0.00 | 0.00 | 0.00 | 46 | 1017.0 |
| 20260504014708 | 11 | 219 | 4.8 | 6.4 | 0.00 | 0.00 | 0.00 | 45 | 1017.0 |
| 20260504014205 | 11 | 210 | 6.4 | 9.7 | 0.00 | 0.00 | 0.00 | 45 | 1016.9 |
| 20260504013703 | 11 | 251 | 3.2 | 4.8 | 0.00 | 0.00 | 0.00 | 45 | 1017.0 |
| 20260504013200 | 11 | 250 | 3.2 | 8.0 | 0.00 | 0.00 | 0.00 | 44 | 1017.0 |
| 20260504012656 | 11 | 270 | 4.8 | 9.7 | 0.00 | 0.00 | 0.00 | 44 | 1016.9 |
| 20260504012154 | 11 | 300 | 3.2 | 9.7 | 0.00 | 0.00 | 0.00 | 44 | 1016.9 |
| 20260504011651 | 11 | 256 | 4.8 | 8.0 | 0.00 | 0.00 | 0.00 | 44 | 1016.9 |
| 20260504011148 | 11 | 280 | 6.4 | 9.7 | 0.00 | 0.00 | 0.00 | 43 | 1016.9 |
| 20260504010643 | 11 | 207 | 4.8 | 8.0 | 0.00 | 0.00 | 0.00 | 43 | 1016.7 |
| 20260504010139 | 11 | 238 | 4.8 | 6.4 | 0.00 | 0.00 | 0.00 | 44 | 1016.9 |
| 20260504005637 | 11 | 231 | 3.2 | 8.0 | 0.00 | 0.00 | 0.00 | 43 | 1016.9 |
| 20260504005133 | 11 | 200 | 6.4 | 8.0 | 0.00 | 0.00 | 0.00 | 42 | 1016.9 |
| 20260504004632 | 12 | 270 | 1.6 | 8.0 | 0.00 | 0.00 | 0.00 | 43 | 1016.6 |
| 20260504004128 | 12 | 235 | 4.8 | 8.0 | 0.00 | 0.00 | 0.00 | 42 | 1016.9 |
| 20260504003624 | 12 | 252 | 4.8 | 8.0 | 0.00 | 0.00 | 0.00 | 42 | 1016.8 |
| 20260504003121 | 12 | 214 | 0.0 | 8.0 | 0.00 | 0.00 | 0.00 | 42 | 1016.8 |
| 20260504002618 | 12 | 226 | 6.4 | 8.0 | 0.00 | 0.00 | 0.00 | 41 | 1016.9 |
| 20260504002116 | 12 | 213 | 3.2 | 11.3 | 0.00 | 0.00 | 0.00 | 41 | 1016.6 |
| 20260504001614 | 12 | 238 | 4.8 | 14.5 | 0.00 | 0.00 | 0.00 | 40 | 1016.7 |
| 20260504001109 | 12 | 275 | 3.2 | 11.3 | 0.00 | 0.00 | 0.00 | 41 | 1016.7 |
| 20260504000607 | 12 | 243 | 4.8 | 9.7 | 0.00 | 0.00 | 0.00 | 41 | 1016.6 |
| 20260504000104 | 12 | 247 | 8.0 | 9.7 | 0.00 | 0.00 | 0.00 | 40 | 1016.8 |
| 20260503235602 | 12 | 232 | 12.9 | 12.9 | 0.00 | 0.00 | 0.00 | 40 | 1016.6 |
| 20260503235058 | 12 | 222 | 4.8 | 11.3 | 0.00 | 0.00 | 0.00 | 40 | 1016.8 |
| 20260503234556 | 12 | 195 | 8.0 | 14.5 | 0.00 | 0.00 | 0.00 | 39 | 1016.7 |
| 20260503234054 | 12 | 222 | 4.8 | 9.7 | 0.00 | 0.00 | 0.00 | 39 | 1016.7 |
| 20260503233550 | 12 | 268 | 8.0 | 9.7 | 0.00 | 0.00 | 0.00 | 39 | 1016.8 |
| 20260503233046 | 13 | 233 | 6.4 | 17.7 | 0.00 | 0.00 | 0.00 | 39 | 1016.8 |
| 20260503232544 | 13 | 251 | 11.3 | 16.1 | 0.00 | 0.00 | 0.00 | 38 | 1016.7 |
| 20260503232041 | 13 | 237 | 8.0 | 16.1 | 0.00 | 0.00 | 0.00 | 37 | 1016.9 |
| 20260503231539 | 13 | 243 | 12.9 | 17.7 | 0.00 | 0.00 | 0.00 | 37 | 1016.8 |
| 20260503231035 | 13 | 255 | 11.3 | 22.5 | 0.00 | 0.00 | 0.00 | 37 | 1016.7 |
| 20260503230532 | 13 | 276 | 8.0 | 22.5 | 0.00 | 0.00 | 0.00 | 37 | 1016.8 |
| 20260503230030 | 13 | 213 | 9.7 | 16.1 | 0.00 | 0.00 | 0.00 | 37 | 1016.8 |
| 20260503225526 | 13 | 202 | 8.0 | 12.9 | 0.00 | 0.00 | 0.00 | 36 | 1016.9 |
| 20260503225021 | 13 | 219 | 9.7 | 17.7 | 0.00 | 0.00 | 0.00 | 37 | 1016.7 |
| 20260503224519 | 14 | 212 | 11.3 | 17.7 | 0.00 | 0.00 | 0.00 | 36 | 1017.0 |
| 20260503224017 | 14 | 272 | 8.0 | 17.7 | 0.00 | 0.00 | 0.00 | 36 | 1016.9 |
| 20260503223515 | 14 | 255 | 11.3 | 25.7 | 0.00 | 0.00 | 0.00 | 35 | 1016.8 |
| 20260503223010 | 14 | 272 | 11.3 | 20.9 | 0.00 | 0.00 | 0.00 | 35 | 1017.1 |
| 20260503222508 | 14 | 233 | 6.4 | 24.1 | 0.00 | 0.00 | 0.00 | 36 | 1017.0 |
| 20260503222006 | 14 | 255 | 9.7 | 19.3 | 0.00 | 0.00 | 0.00 | 36 | 1016.9 |
| 20260503221504 | 14 | 199 | 3.2 | 20.9 | 0.00 | 0.00 | 0.00 | 37 | 1017.0 |
| 20260503221001 | 15 | 272 | 8.0 | 16.1 | 0.00 | 0.00 | 0.00 | 35 | 1017.1 |
| 20260503220457 | 14 | 252 | 22.5 | 24.1 | 0.00 | 0.00 | 0.00 | 35 | 1016.9 |
| 20260503215954 | 14 | 222 | 19.3 | 22.5 | 0.00 | 0.00 | 0.00 | 35 | 1017.0 |
| 20260503215451 | 14 | 222 | 16.1 | 24.1 | 0.00 | 0.00 | 0.00 | 35 | 1017.1 |
| 20260503214948 | 15 | 209 | 8.0 | 11.3 | 0.00 | 0.00 | 0.00 | 36 | 1017.0 |
| 20260503214447 | 14 | 150 | 9.7 | 25.7 | 0.00 | 0.00 | 0.00 | 35 | 1017.2 |
| 20260503213943 | 15 | 261 | 4.8 | 11.3 | 0.00 | 0.00 | 0.00 | 34 | 1016.9 |
| 20260503213442 | 15 | 222 | 9.7 | 20.9 | 0.00 | 0.00 | 0.00 | 34 | 1016.9 |
| 20260503212937 | 14 | 262 | 14.5 | 24.1 | 0.00 | 0.00 | 0.00 | 35 | 1016.9 |
| 20260503212435 | 15 | 223 | 9.7 | 14.5 | 0.00 | 0.00 | 0.00 | 35 | 1017.1 |
| 20260503211932 | 15 | 255 | 20.9 | 29.0 | 0.00 | 0.00 | 0.00 | 34 | 1016.9 |
| 20260503211429 | 15 | 265 | 3.2 | 11.3 | 0.00 | 0.00 | 0.00 | 36 | 1016.8 |
| 20260503210924 | 14 | 302 | 16.1 | 24.1 | 0.00 | 0.00 | 0.00 | 36 | 1016.8 |
| 20260503210422 | 14 | 278 | 9.7 | 19.3 | 0.00 | 0.00 | 0.00 | 35 | 1016.9 |
| 20260503205917 | 14 | 242 | 9.7 | 29.0 | 0.00 | 0.00 | 0.00 | 35 | 1017.0 |
| 20260503205414 | 15 | 227 | 14.5 | 16.1 | 0.00 | 0.00 | 0.00 | 35 | 1017.2 |
| 20260503204910 | 15 | 204 | 17.7 | 27.4 | 0.00 | 0.00 | 0.00 | 36 | 1017.1 |
| 20260503204408 | 15 | 207 | 9.7 | 20.9 | 0.00 | 0.00 | 0.00 | 35 | 1017.2 |
| 20260503203905 | 14 | 261 | 3.2 | 27.4 | 0.00 | 0.00 | 0.00 | 35 | 1017.2 |
| 20260503203402 | 15 | 217 | 8.0 | 24.1 | 0.00 | 0.00 | 0.00 | 35 | 1017.1 |
| 20260503202859 | 15 | 207 | 6.4 | 16.1 | 0.00 | 0.00 | 0.00 | 36 | 1017.4 |
| 20260503202357 | 14 | 236 | 14.5 | 24.1 | 0.00 | 0.00 | 0.00 | 34 | 1017.6 |
| 20260503201855 | 14 | 262 | 3.2 | 24.1 | 0.00 | 0.00 | 0.00 | 35 | 1017.5 |
| 20260503201352 | 15 | 230 | 14.5 | 27.4 | 0.00 | 0.00 | 0.00 | 35 | 1017.5 |
| 20260503200849 | 13 | 262 | 4.8 | 16.1 | 0.00 | 0.00 | 0.00 | 38 | 1017.6 |
| 20260503200345 | 14 | 267 | 4.8 | 9.7 | 0.00 | 0.00 | 0.00 | 37 | 1017.6 |
| 20260503195842 | 13 | 220 | 17.7 | 24.1 | 0.00 | 0.00 | 0.00 | 36 | 1017.6 |
| 20260503195339 | 13 | 277 | 8.0 | 16.1 | 0.00 | 0.00 | 0.00 | 36 | 1017.9 |
| 20260503194836 | 14 | 226 | 8.0 | 16.1 | 0.00 | 0.00 | 0.00 | 37 | 1017.9 |
| 20260503194332 | 14 | 227 | 16.1 | 29.0 | 0.00 | 0.00 | 0.00 | 35 | 1018.1 |
| 20260503193828 | 14 | 156 | 9.7 | 22.5 | 0.00 | 0.00 | 0.00 | 39 | 1018.3 |
| 20260503193324 | 13 | 213 | 11.3 | 25.7 | 0.00 | 0.00 | 0.00 | 35 | 1018.1 |
| 20260503192820 | 13 | 298 | 11.3 | 20.9 | 0.00 | 0.00 | 0.00 | 36 | 1018.4 |
| 20260503192316 | 13 | 297 | 4.8 | 11.3 | 0.00 | 0.00 | 0.00 | 37 | 1018.5 |
| 20260503191812 | 13 | 270 | 3.2 | 8.0 | 0.00 | 0.00 | 0.00 | 38 | 1018.5 |
| 20260503191310 | 12 | 239 | 11.3 | 14.5 | 0.00 | 0.00 | 0.00 | 38 | 1018.5 |
| 20260503190806 | 12 | 298 | 12.9 | 25.7 | 0.00 | 0.00 | 0.00 | 37 | 1018.3 |
| 20260503190303 | 13 | 291 | 8.0 | 19.3 | 0.00 | 0.00 | 0.00 | 38 | 1018.5 |
| 20260503185800 | 13 | 310 | 3.2 | 22.5 | 0.00 | 0.00 | 0.00 | 39 | 1018.6 |
| 20260503185256 | 12 | 8 | 9.7 | 25.7 | 0.00 | 0.00 | 0.00 | 38 | 1018.7 |
| 20260503184755 | 13 | 329 | 14.5 | 19.3 | 0.00 | 0.00 | 0.00 | 41 | 1018.6 |
| 20260503184252 | 12 | 312 | 11.3 | 19.3 | 0.00 | 0.00 | 0.00 | 39 | 1018.8 |
| 20260503183748 | 13 | 286 | 9.7 | 24.1 | 0.00 | 0.00 | 0.00 | 38 | 1018.8 |
| 20260503183246 | 13 | 297 | 11.3 | 24.1 | 0.00 | 0.00 | 0.00 | 38 | 1018.9 |
| 20260503182743 | 13 | 252 | 9.7 | 9.7 | 0.00 | 0.00 | 0.00 | 38 | 1019.0 |
| 20260503182242 | 12 | 277 | 9.7 | 25.7 | 0.00 | 0.00 | 0.00 | 40 | 1018.9 |
| 20260503181739 | 13 | 212 | 9.7 | 20.9 | 0.00 | 0.00 | 0.00 | 36 | 1019.1 |
| 20260503181236 | 12 | 315 | 9.7 | 20.9 | 0.00 | 0.00 | 0.00 | 38 | 1019.0 |
| 20260503180732 | 13 | 23 | 8.0 | 11.3 | 0.00 | 0.00 | 0.00 | 40 | 1018.8 |
| 20260503180231 | 12 | 221 | 14.5 | 20.9 | 0.00 | 0.00 | 0.00 | 39 | 1019.0 |
| 20260503175727 | 12 | 183 | 9.7 | 25.7 | 0.00 | 0.00 | 0.00 | 40 | 1019.1 |
| 20260503175225 | 12 | 209 | 6.4 | 25.7 | 0.00 | 0.00 | 0.00 | 38 | 1019.3 |
| 20260503174720 | 12 | 261 | 20.9 | 25.7 | 0.00 | 0.00 | 0.00 | 39 | 1019.3 |
| 20260503174218 | 12 | 265 | 9.7 | 35.4 | 0.00 | 0.00 | 0.00 | 38 | 1019.4 |
| 20260503173714 | 12 | 170 | 3.2 | 19.3 | 0.00 | 0.00 | 0.00 | 41 | 1019.4 |
| 20260503173210 | 12 | 247 | 19.3 | 32.2 | 0.00 | 0.00 | 0.00 | 40 | 1019.7 |
| 20260503172707 | 12 | 222 | 9.7 | 16.1 | 0.00 | 0.00 | 0.00 | 41 | 1019.5 |
| 20260503172204 | 12 | 264 | 9.7 | 33.8 | 0.00 | 0.00 | 0.00 | 38 | 1019.6 |
| 20260503171700 | 12 | 246 | 22.5 | 22.5 | 0.00 | 0.00 | 0.00 | 41 | 1019.5 |
| 20260503171158 | 11 | 218 | 8.0 | 30.6 | 0.00 | 0.00 | 0.00 | 40 | 1019.6 |
| 20260503170654 | 12 | 253 | 17.7 | 19.3 | 0.00 | 0.00 | 0.00 | 42 | 1019.6 |
| 20260503170151 | 11 | 221 | 19.3 | 35.4 | 0.00 | 0.00 | 0.00 | 40 | 1019.8 |
| 20260503160113 | 10 | 297 | 19.3 | 30.6 | 0.00 | 0.00 | 0.00 | 45 | 1020.5 |
| 20260503150542 | 8 | 254 | 6.4 | 25.7 | 0.00 | 0.00 | 0.00 | 48 | 1020.6 |
| 20260503130932 | 6 | 257 | 0.0 | 19.3 | 0.00 | 0.00 | 0.00 | 74 | 1020.8 |
| 20260503130430 | 5 | 270 | 8.0 | 9.7 | 0.00 | 0.00 | 0.00 | 76 | 1021.0 |
| 20260503110823 | 1 | 252 | 4.8 | 8.0 | 0.00 | 0.00 | 0.00 | 92 | 1020.0 |
| 20260503110319 | 1 | 210 | 6.4 | 8.0 | 0.00 | 0.00 | 0.00 | 92 | 1020.0 |
| 20260503100246 | 1 | 234 | 8.0 | 9.7 | 0.00 | 0.00 | 0.00 | 92 | 1019.1 |
| 20260503090205 | 1 | 219 | 3.2 | 8.0 | 0.00 | 0.00 | 0.00 | 91 | 1018.9 |
| 20260503081138 | 1 | 210 | 0.0 | 4.8 | 0.00 | 0.00 | 0.00 | 89 | 1018.9 |
| 20260503080634 | 1 | 212 | 4.8 | 8.0 | 0.00 | 0.00 | 0.00 | 88 | 1018.9 |